Regional Weather Roundup
Issued by NWS

Home | Current Version | Previous Version | Text Only | Print | Product List | Glossary Off
Versions: 1 2 3 4 5 6 7 8 9 10 11 12 13 14 15 16 17 18 19 20 21 22 23 24 25 26 27 28 29 30 31 32 33 34 35 36 37 38 39 40 41 42 43 44 45 46 47 48 49 50

000
ASUS45 KBOU 260307
RWRCO

WEATHER ROUNDUP FOR COLORADO
NATIONAL WEATHER SERVICE DENVER/BOULDER CO
900 PM MDT SAT APR 25 2015

NOTE: "FAIR" INDICATES FEW OR NO CLOUDS BELOW 12000 FEET WITH NO
SIGNIFICANT WEATHER AND/OR OBSTRUCTIONS TO VISIBILITY.

COZ001>005-013-030-031-260400-
...NORTHWEST COLORADO...

CITY           SKY/WX    TMP DP  RH WIND       PRES   REMARKS
CRAIG          CLOUDY    48  35  60 SW20G29   29.80R
HAYDEN         CLOUDY    45  32  61 S26G33    29.81R
MEEKER         CLOUDY    44  38  79 SE5       29.80S
MOUNT WERNER   NOT AVBL
STEAMBOAT SPGS CLOUDY    45  35  68 SE6       29.78S
WALDEN         CLOUDY    37  32  81 E5        29.84S
$$

COZ006>008-011-260400-
...WEST CENTRAL VALLEYS...

CITY           SKY/WX    TMP DP  RH WIND       PRES   REMARKS
GRAND JUNCTION LGT RAIN  46  45  96 E6        29.72F
MONTROSE       CLOUDY    45  42  89 S5        29.78F
EAGLE          CLOUDY    48  37  66 NE9       29.82R
RIFLE          LGT RAIN  45  42  89 E6        29.80R
DELTA          CLOUDY    49  43  79 MISG      29.75F
NUCLA          CLOUDY    46  39  76 E13       29.79R
$$

COZ017>023-064>068-260400-
...SOUTHWEST COLORADO...

CITY           SKY/WX    TMP DP  RH WIND       PRES   REMARKS
DURANGO        CLOUDY    46  37  71 CALM      29.82R
CORTEZ         MOCLDY    48  37  65 S3        29.78R
PAGOSA SPRINGS CLOUDY    39  35  83 CALM      29.87R
TELLURIDE      CLOUDY    38  32  79 E3        29.88R
WOLF CREEK PAS NOT AVBL
$$

COZ009-010-012-014-032>034-037-058>063-260400-
...CENTRAL COLORADO...

CITY           SKY/WX    TMP DP  RH WIND       PRES   REMARKS
ASPEN          CLOUDY    41  35  79 CALM      29.81R
BUENA VISTA    CLOUDY    45  32  60 W6        29.81R
COPPER MTN     MOCLDY    32  28  86 E3        29.95S
BERTHOUD PASS  HAZE      25  18  74 MISG      29.99S VSB<1/4
COTTONWOOD PAS CLOUDY    43  28  56 CALM      29.88S
GUNNISON       MOCLDY    45  30  57 NE8       29.84S
KREMMLING      LGT RAIN  41  36  81 S7        29.87R
LEADVILLE      MOCLDY    31  26  82 E3        29.87S
SALIDA         CLOUDY    51  32  47 S5        29.88R
SUNLIGHT       LGT SNOW  32  32 100 CALM      29.94R VSB 3/4
WILKERSON PASS CLOUDY    32  27  80 SE5G20    29.98R WCI  27
$$

COZ069>075-260400-
...SAN LUIS VALLEY/SANGRE DE CRISTO MOUNTAINS...

CITY           SKY/WX    TMP DP  RH WIND       PRES   REMARKS
ALAMOSA        PTCLDY    47  28  47 SW15      29.84R
LA VETA PASS   PTCLDY    37  25  60 S10G20    29.94R
SAGUACHE       CLOUDY    46  27  46 NW6       29.83R
$$

COZ035-036-038>040-260400-
...NORTHERN COLORADO FRONT RANGE...

CITY           SKY/WX    TMP DP  RH WIND       PRES   REMARKS
DENVER INTL AP CLOUDY    52  40  63 N8        29.77R
DMNS CITY PARK   N/A     55  38  52 NW12      29.76F
AURORA         NOT AVBL
FRONT RANGE AP MOCLDY    57  37  47 S6        29.77R
ERIE MUNI ARPT CLOUDY    55  38  53 E6        29.79R
BOULDER MUN AP CLOUDY    55  36  47 NE3       29.77R
CENTENNIAL     CLOUDY    54  34  46 NW12G23   29.75F
BROOMFIELD     MOCLDY    57  36  44 CALM      29.80R
FORT COLLINS   MOCLDY    52  39  62 NE10      29.78R
LONGMONT       MOCLDY    56  39  52 NE3       29.78R
$$

COZ041-046-047-076>085-087-088-260400-
...PIKES PEAK/PALMER DIVIDE AND SOUTHERN FOOTHILLS...

CITY           SKY/WX    TMP DP  RH WIND       PRES   REMARKS
COLO. SPRINGS  CLOUDY    54  30  40 NW6       29.77R
A. F. ACADEMY  NOT AVBL
ELLICOTT       CLOUDY   N/A N/A N/A S20G26    29.76R
FALCON         CLOUDY    51  28  40 N3        29.80S
FORT CARSON    NOT AVBL
LIMON          CLOUDY    57  38  48 E12       29.76R
MONUMENT HILL  CLOUDY    45  34  65 NW6       29.81S
TRINIDAD       PTCLDY    52  27  38 W7        29.73R
$$

COZ042>045-048>051-090-091-260400-
...NORTHEAST COLORADO...

CITY           SKY/WX    TMP DP  RH WIND       PRES   REMARKS
GREELEY ARPT   MOCLDY    52  39  62 NE17      29.76R
AKRON          TSTM      47  45  93 NW29G36   29.79R
BURLINGTON     CLEAR     54  42  64 SE12      29.73R
WRAY           MOCLDY    59  51  75 E14G23    29.74R
STERLING       TSTM      48  46  93 NW17      29.81R
HOLYOKE        MOCLDY    59  52  77 SE20      29.74R
FORT MORGAN    CLOUDY    50  43  78 NE16      29.75R
$$

COZ086-089-092>099-260400-
...SOUTHEAST COLORADO...

CITY           SKY/WX    TMP DP  RH WIND       PRES   REMARKS
PUEBLO         CLOUDY    67  25  20 S9        29.68R
LA JUNTA       MOCLDY    64  32  30 E17       29.66R
LAMAR          PTCLDY    61  38  42 E12       29.67R
SPRINGFIELD      N/A     57  32  38 E10       29.69S
$$


USA.gov is the U.S. government's official web portal to all federal, state and local government web resources and services.